Weather History for Luverne, MN

Change the Weather History Date:

Saturday, February 2, 2013

  Actual Average (KFSD) Record (KFSD)
Temperature  
Mean Temperature 22 °F 18 °F  
Max Temperature 33 °F 28 °F 56 °F (1991)
Min Temperature 10 °F 8 °F -37 °F (1905)
Degree Days  
Heating Degree Days 44 47  
Month to date heating degree days 94  
Since 1 July heating degree days 4726  
Cooling Degree Days 0 0  
Month to date cooling degree days 0  
Year to date cooling degree days 0  
Moisture  
Dew Point 15 °F    
Average Humidity 80    
Maximum Humidity 93    
Minimum Humidity 68    
Precipitation  
Precipitation 0.00 in 0.02 in 1.03 in (1919)
Month to date precipitation 0.04  
Year to date precipitation 0.60  
Snow  
Snow 0.00 in 0.20 in 3.00 in (1893)
Month to date snowfall 0.5  
Since 1 July snowfall 25.1  
Snow Depth -    
Sea Level Pressure  
Sea Level Pressure 30.05 in    
Wind  
Wind Speed 8 mph (WNW)    
Max Wind Speed 30 mph    
Max Gust Speed 46 mph    
Visibility 8 miles    
Events Rain , Snow    
T = Trace of Precipitation, MM = Missing Value Source: NWS Daily Summary

Daily Weather History Graph

Daily Weather History Graph

Search for Another Location

Airport:

Trip Planner

Search our weather history database for the weather conditions in past years. The results will help you decide how hot, cold, wet, or windy it might be!

Date:

Astronomy

Feb. 02, 2013 Rise Set
Actual Time 7:39 AM CST 5:37 PM CST
Civil Twilight 7:09 AM CST 6:08 PM CST
Nautical Twilight 6:35 AM CST 6:42 PM CST
Astronomical Twilight 6:01 AM CST 7:16 PM CST
Moon No Moon Rise 10:36 AM CST (2/2)
Length of Visible Light 10h 58m
Length of Day
9h 58m
Waning Gibbous, 59% of the Moon is Illuminated
Feb 2
Waning Gibbous
Feb 3
Last Quarter
Feb 10
New
Feb 17
First Quarter
Feb 25
Full

Hourly Weather History & Observations

Time (CST) Temp. Windchill Dew Point Humidity Pressure Visibility Wind Dir Wind Speed Gust Speed Precip Events Conditions
12:16 AM 17.6 °F 6.4 °F 12.2 °F 79% 30.04 in 10.0 mi North 9.2 mph - N/A   Mostly Cloudy
12:36 AM 17.6 °F 6.4 °F 12.2 °F 79% 30.04 in 10.0 mi NNW 9.2 mph - N/A   Overcast
12:56 AM 17.6 °F 5.7 °F 12.2 °F 79% 30.05 in 10.0 mi North 10.4 mph - N/A   Overcast
1:16 AM 17.6 °F 4.3 °F 12.2 °F 79% 30.05 in 10.0 mi North 12.7 mph 17.3 mph N/A   Overcast
1:36 AM 17.6 °F 5.7 °F 12.2 °F 79% 30.05 in 10.0 mi North 10.4 mph - N/A   Overcast
1:56 AM 17.6 °F 5.0 °F 10.4 °F 73% 30.06 in 10.0 mi North 11.5 mph - N/A   Overcast
2:16 AM 17.6 °F 5.7 °F 10.4 °F 73% 30.07 in 10.0 mi North 10.4 mph - N/A   Overcast
2:36 AM 15.8 °F 3.4 °F 10.4 °F 79% 30.07 in 10.0 mi North 10.4 mph - N/A   Scattered Clouds
3:16 AM 14.0 °F 6.5 °F 8.6 °F 79% 30.09 in 10.0 mi NNW 4.6 mph - N/A   Clear
3:36 AM 12.2 °F 2.9 °F 8.6 °F 85% 30.09 in 10.0 mi NNW 5.8 mph - N/A   Clear
3:56 AM 12.2 °F 2.9 °F 8.6 °F 85% 30.09 in 10.0 mi NW 5.8 mph - N/A   Clear
4:16 AM 12.2 °F 4.3 °F 8.6 °F 85% 30.10 in 10.0 mi NW 4.6 mph - N/A   Clear
4:36 AM 12.2 °F 2.9 °F 6.8 °F 79% 30.11 in 10.0 mi WNW 5.8 mph - N/A   Clear
4:56 AM 10.4 °F 2.2 °F 5.0 °F 79% 30.11 in 10.0 mi NW 4.6 mph - N/A   Clear
5:16 AM 10.4 °F 4.0 °F 5.0 °F 79% 30.12 in 10.0 mi NW 3.5 mph - N/A   Scattered Clouds
5:36 AM 10.4 °F 2.2 °F 5.0 °F 79% 30.12 in 10.0 mi NW 4.6 mph - N/A   Scattered Clouds
6:16 AM 12.2 °F 6.1 °F 8.6 °F 85% 30.13 in 10.0 mi NNW 3.5 mph - N/A   Overcast
6:37 AM 12.2 °F - 8.6 °F 85% 30.12 in 10.0 mi Calm Calm - N/A   Overcast
6:56 AM 12.2 °F 6.1 °F 8.6 °F 85% 30.12 in 10.0 mi NNW 3.5 mph - N/A   Overcast
7:16 AM 12.2 °F - 8.6 °F 85% 30.12 in 10.0 mi Calm Calm - N/A   Overcast
7:37 AM 12.2 °F 6.1 °F 8.6 °F 85% 30.12 in 10.0 mi NW 3.5 mph - N/A   Overcast
7:56 AM 14.0 °F - 8.6 °F 79% 30.12 in 10.0 mi Calm Calm - N/A   Overcast
8:16 AM 14.0 °F - 8.6 °F 79% 30.12 in 10.0 mi Calm Calm - N/A   Overcast
8:35 AM 14.0 °F - 8.6 °F 79% 30.14 in 10.0 mi Calm Calm - N/A   Overcast
8:56 AM 14.0 °F - 8.6 °F 79% 30.14 in 10.0 mi Calm Calm - N/A   Overcast
9:16 AM 14.0 °F - 8.6 °F 79% 30.14 in 7.0 mi Calm Calm - N/A Snow Light Snow
9:36 AM 14.0 °F - 8.6 °F 79% 30.14 in 7.0 mi Calm Calm - N/A Snow Light Snow
9:56 AM 14.0 °F - 8.6 °F 79% 30.13 in 7.0 mi Calm Calm - N/A Snow Light Snow
10:16 AM 15.8 °F 10.2 °F 10.4 °F 79% 30.12 in 10.0 mi SE 3.5 mph - N/A   Overcast
10:36 AM 15.8 °F - 10.4 °F 79% 30.12 in 7.0 mi Calm Calm - N/A Snow Light Snow
10:56 AM 19.4 °F 10.4 °F 10.4 °F 68% 30.11 in 10.0 mi SW 6.9 mph - N/A   Overcast
11:16 AM 19.4 °F 11.5 °F 10.4 °F 68% 30.12 in 10.0 mi WSW 5.8 mph - N/A Snow Light Snow
11:36 AM 19.4 °F 12.8 °F 10.4 °F 68% 30.11 in 10.0 mi SW 4.6 mph - N/A   Overcast
11:56 AM 19.4 °F 12.8 °F 12.2 °F 74% 30.11 in 2.5 mi SW 4.6 mph - N/A Snow Light Snow
12:16 PM 19.4 °F 12.8 °F 12.2 °F 74% 30.10 in 3.0 mi SW 4.6 mph - N/A Snow Light Snow
12:36 PM 19.4 °F 12.8 °F 12.2 °F 74% 30.09 in 4.0 mi SSW 4.6 mph - N/A Snow Light Snow
12:56 PM 19.4 °F 8.6 °F 14.0 °F 80% 30.08 in 7.0 mi SSW 9.2 mph - N/A   Overcast
1:16 PM 21.2 °F 10.9 °F 14.0 °F 74% 30.05 in 5.0 mi SW 9.2 mph - N/A Snow Light Snow
1:36 PM 21.2 °F 10.1 °F 14.0 °F 74% 30.04 in 10.0 mi SW 10.4 mph - N/A   Overcast
1:56 PM 21.2 °F 10.1 °F 15.8 °F 80% 30.03 in 10.0 mi SSW 10.4 mph - N/A   Overcast
2:16 PM 21.2 °F 10.1 °F 17.6 °F 86% 30.02 in 10.0 mi SSW 10.4 mph - N/A   Overcast
2:36 PM 21.2 °F 9.5 °F 17.6 °F 86% 30.01 in 10.0 mi SSW 11.5 mph - N/A   Overcast
2:56 PM 23.0 °F 11.7 °F 17.6 °F 80% 29.99 in 5.0 mi SSW 11.5 mph - N/A Snow Light Snow
3:16 PM 23.0 °F 12.4 °F 19.4 °F 86% 29.99 in 0.8 mi SSW 10.4 mph - N/A Snow Light Snow
3:36 PM 23.0 °F 12.4 °F 19.4 °F 86% 29.99 in 0.8 mi SSW 10.4 mph - N/A Snow Light Snow
3:56 PM 23.0 °F 13.1 °F 19.4 °F 86% 29.99 in 1.8 mi SSW 9.2 mph - N/A Snow Light Snow
4:16 PM 23.0 °F 13.9 °F 19.4 °F 86% 29.98 in 1.0 mi SSW 8.1 mph - N/A Snow Light Snow
4:36 PM 23.0 °F 13.1 °F 21.2 °F 93% 29.97 in 0.2 mi SSW 9.2 mph - N/A Snow Snow
4:56 PM 23.0 °F 13.9 °F 21.2 °F 93% 29.96 in 0.8 mi SSW 8.1 mph - N/A Snow Light Snow
5:16 PM 24.8 °F 16.9 °F 21.2 °F 86% 29.97 in 1.5 mi SSW 6.9 mph - N/A Snow Light Snow
5:36 PM 24.8 °F 16.1 °F 21.2 °F 86% 29.95 in 7.0 mi South 8.1 mph - N/A Snow Light Snow
5:56 PM 26.6 °F - 23.0 °F 86% 29.95 in 7.0 mi Calm Calm - N/A   Overcast
6:16 PM 26.6 °F - 23.0 °F 86% 29.94 in 7.0 mi Calm Calm - N/A Snow Light Snow
6:36 PM 26.6 °F - 23.0 °F 86% 29.94 in 7.0 mi Calm Calm - N/A   Overcast
6:56 PM 30.2 °F 18.1 °F 26.6 °F 86% 29.95 in 10.0 mi WNW 18.4 mph 27.6 mph N/A   Overcast
7:16 PM 33.8 °F 21.3 °F 28.4 °F 81% 29.95 in 7.0 mi NW 24.2 mph 34.5 mph N/A Rain Light Rain
7:36 PM 33.8 °F 22.8 °F 26.6 °F 75% 29.96 in 10.0 mi NW 18.4 mph 25.3 mph N/A   Overcast
7:56 PM 32.0 °F 19.2 °F 26.6 °F 80% 29.97 in 7.0 mi NW 23.0 mph 29.9 mph N/A   Mostly Cloudy
8:16 PM 32.0 °F 18.1 °F 26.6 °F 80% 29.97 in 7.0 mi NW 27.6 mph 34.5 mph N/A   Mostly Cloudy
8:36 PM 32.0 °F 17.6 °F 26.6 °F 80% 29.98 in 1.2 mi NNW 29.9 mph 46.0 mph N/A Snow Light Snow
8:56 PM 28.4 °F 13.3 °F 23.0 °F 80% 30.00 in 2.5 mi NW 27.6 mph 34.5 mph N/A Snow Light Snow
9:17 PM 26.6 °F 12.7 °F 21.2 °F 80% 30.01 in 7.0 mi NW 20.7 mph 29.9 mph N/A   Overcast
9:36 PM 26.6 °F 13.1 °F 21.2 °F 80% 30.03 in 7.0 mi NW 19.6 mph 27.6 mph N/A   Overcast
9:56 PM 26.6 °F 11.1 °F 19.4 °F 74% 30.02 in 2.5 mi NNW 26.5 mph 33.4 mph N/A   Haze
10:16 PM 26.6 °F 13.1 °F 19.4 °F 74% 30.03 in 7.0 mi NNW 19.6 mph 26.5 mph N/A   Overcast
10:36 PM 26.6 °F 13.1 °F 19.4 °F 74% 30.03 in 10.0 mi NW 19.6 mph 26.5 mph N/A   Overcast
10:56 PM 24.8 °F 10.7 °F 17.6 °F 74% 30.04 in 10.0 mi NW 19.6 mph 27.6 mph N/A   Overcast
11:16 PM 23.0 °F 8.7 °F 17.6 °F 80% 30.05 in 4.0 mi NNW 18.4 mph 27.6 mph N/A Snow Light Snow
11:56 PM 21.2 °F 7.8 °F 17.6 °F 86% 30.08 in 5.0 mi NNW 15.0 mph - N/A   Haze